Weather History for Rutherfordton, NC

Change the Weather History Date:

Wednesday, January 30, 2013

  Actual Average (KAVL) Record (KAVL)
Temperature  
Mean Temperature 58 °F 38 °F  
Max Temperature 67 °F 48 °F 76 °F (2002)
Min Temperature 48 °F 27 °F -7 °F (1966)
Degree Days  
Heating Degree Days 7 27  
Month to date heating degree days 837  
Since 1 July heating degree days 2498  
Cooling Degree Days 0 0  
Month to date cooling degree days 0  
Year to date cooling degree days 0  
Growing Degree Days 8 (Base 50)    
Moisture  
Dew Point 58 °F    
Average Humidity 89    
Maximum Humidity 97    
Minimum Humidity 77    
Precipitation  
Precipitation 1.04 in 0.13 in 2.76 in (2013)
Month to date precipitation 3.55  
Year to date precipitation 3.55  
Snow  
Snow 0.00 in 0.20 in 4.10 in (1981)
Month to date snowfall 4.0  
Since 1 July snowfall 5.0  
Snow Depth -    
Sea Level Pressure  
Sea Level Pressure 29.73 in    
Wind  
Wind Speed 9 mph (SSW)    
Max Wind Speed 26 mph    
Max Gust Speed 37 mph    
Visibility 9 miles    
Events Rain    
T = Trace of Precipitation, MM = Missing Value Source: NWS Daily Summary

Daily Weather History Graph

Daily Weather History Graph

Search for Another Location

Airport:

Trip Planner

Search our weather history database for the weather conditions in past years. The results will help you decide how hot, cold, wet, or windy it might be!

Date:

Astronomy

Jan. 30, 2013 Rise Set
Actual Time 7:28 AM EST 5:53 PM EST
Civil Twilight 7:01 AM EST 6:20 PM EST
Nautical Twilight 6:31 AM EST 6:51 PM EST
Astronomical Twilight 6:01 AM EST 7:21 PM EST
Moon 9:40 PM EST (1/30) 9:05 AM EST (1/30)
Length of Visible Light 11h 19m
Length of Day
10h 25m
Waning Gibbous, 88% of the Moon is Illuminated
Jan 30
Waning Gibbous
Feb 3
Last Quarter
Feb 10
New
Feb 17
First Quarter
Feb 25
Full

Hourly Weather History & Observations

Time (EST) Temp. Dew Point Humidity Pressure Visibility Wind Dir Wind Speed Gust Speed Precip Events Conditions
12:15 AM 59.5 °F 57.4 °F 93% 30.02 in 7.0 mi South 3.5 mph - N/A   Overcast
12:35 AM 59.9 °F 57.6 °F 92% 30.02 in 7.0 mi Calm Calm - N/A   Overcast
12:55 AM 60.3 °F 57.6 °F 91% 30.00 in 10.0 mi Calm Calm - N/A   Overcast
1:15 AM 61.0 °F 57.9 °F 90% 29.99 in 10.0 mi SSE 4.6 mph - N/A   Overcast
1:35 AM 60.4 °F 58.1 °F 92% 29.99 in 10.0 mi South 3.5 mph - N/A   Overcast
1:55 AM 60.8 °F 58.1 °F 91% 29.99 in 10.0 mi SSW 3.5 mph - N/A   Overcast
2:15 AM 61.0 °F 58.6 °F 92% 29.98 in 10.0 mi SSW 5.8 mph - N/A   Overcast
2:35 AM 61.7 °F 59.2 °F 91% 29.97 in 10.0 mi SSW 6.9 mph - N/A   Overcast
2:55 AM 62.2 °F 59.4 °F 90% 29.97 in 10.0 mi South 6.9 mph - N/A   Overcast
3:15 AM 62.8 °F 59.5 °F 89% 29.96 in 10.0 mi South 8.1 mph 16.1 mph N/A   Overcast
3:35 AM 62.6 °F 59.5 °F 90% 29.96 in 10.0 mi South 8.1 mph - N/A   Overcast
3:55 AM 62.6 °F 59.4 °F 89% 29.94 in 10.0 mi South 11.5 mph 16.1 mph N/A   Overcast
4:15 AM 61.3 °F 59.5 °F 94% 29.93 in 7.0 mi South 8.1 mph - 0.01 in Rain Rain
4:35 AM 61.0 °F 59.7 °F 96% 29.93 in 7.0 mi SSE 6.9 mph - 0.03 in Rain Rain
4:55 AM 61.0 °F 59.5 °F 95% 29.92 in 7.0 mi South 6.9 mph - 0.06 in Rain Rain
5:15 AM 60.8 °F 59.9 °F 97% 29.91 in 7.0 mi South 6.9 mph - 0.03 in Rain Light Rain
5:35 AM 61.0 °F 59.9 °F 96% 29.90 in 10.0 mi South 9.2 mph 16.1 mph 0.03 in Rain Rain
5:55 AM 61.0 °F 59.7 °F 96% 29.89 in 10.0 mi South 9.2 mph - 0.03 in   Overcast
6:15 AM 61.3 °F 59.7 °F 94% 29.89 in 10.0 mi South 9.2 mph - N/A Rain Light Rain
6:35 AM 61.5 °F 59.9 °F 94% 29.89 in 7.0 mi SSW 4.6 mph - 0.02 in Rain Rain
6:55 AM 61.2 °F 60.1 °F 96% 29.87 in 5.0 mi South 9.2 mph - 0.06 in Rain Rain
7:15 AM 61.3 °F 60.1 °F 96% 29.87 in 10.0 mi South 5.8 mph - 0.01 in   Overcast
7:35 AM 61.9 °F 60.3 °F 94% 29.86 in 10.0 mi South 10.4 mph 18.4 mph 0.01 in   Overcast
7:55 AM 62.2 °F 60.3 °F 93% 29.85 in 10.0 mi South 13.8 mph 19.6 mph 0.01 in   Overcast
8:15 AM 63.0 °F 60.3 °F 91% 29.84 in 10.0 mi South 13.8 mph 20.7 mph N/A   Overcast
8:35 AM 63.0 °F 60.3 °F 91% 29.84 in 10.0 mi SSW 11.5 mph 24.2 mph N/A   Overcast
8:55 AM 63.5 °F 60.3 °F 89% 29.84 in 10.0 mi South 12.7 mph 20.7 mph N/A   Overcast
9:15 AM 64.0 °F 60.3 °F 87% 29.85 in 10.0 mi South 11.5 mph 21.9 mph N/A   Overcast
9:35 AM 64.6 °F 60.1 °F 85% 29.83 in 10.0 mi South 13.8 mph 21.9 mph N/A   Overcast
9:55 AM 65.1 °F 59.9 °F 83% 29.82 in 10.0 mi South 18.4 mph 31.1 mph N/A   Overcast
10:15 AM 65.1 °F 60.3 °F 84% 29.80 in 10.0 mi South 17.3 mph 27.6 mph N/A   Overcast
10:35 AM 65.5 °F 60.1 °F 83% 29.80 in 10.0 mi South 11.5 mph 24.2 mph N/A   Overcast
10:55 AM 65.8 °F 60.1 °F 82% 29.80 in 10.0 mi South 19.6 mph 25.3 mph N/A   Overcast
11:15 AM 66.2 °F 59.7 °F 80% 29.79 in 10.0 mi South 12.7 mph 23.0 mph N/A   Overcast
11:35 AM 66.6 °F 59.5 °F 78% 29.77 in 10.0 mi SSW 13.8 mph 25.3 mph N/A   Overcast
11:55 AM 67.1 °F 59.7 °F 77% 29.76 in 10.0 mi SSW 15.0 mph 21.9 mph N/A   Overcast
12:15 PM 67.1 °F 59.9 °F 78% 29.74 in 10.0 mi South 15.0 mph 33.4 mph N/A   Overcast
12:35 PM 66.7 °F 59.9 °F 79% 29.72 in 10.0 mi South 16.1 mph 21.9 mph N/A   Overcast
12:55 PM 65.5 °F 60.6 °F 84% 29.71 in 7.0 mi South 11.5 mph 18.4 mph N/A   Drizzle
1:15 PM 65.3 °F 60.8 °F 85% 29.69 in 7.0 mi South 16.1 mph 23.0 mph N/A Rain Rain
1:35 PM 65.1 °F 61.0 °F 86% 29.67 in 5.0 mi South 12.7 mph 23.0 mph 0.01 in   Drizzle
1:55 PM 64.6 °F 61.2 °F 89% 29.66 in 4.0 mi South 15.0 mph 23.0 mph 0.01 in Rain Rain
2:15 PM 64.9 °F 61.2 °F 88% 29.64 in 7.0 mi South 15.0 mph 20.7 mph 0.01 in   Light Drizzle
2:35 PM 65.5 °F 61.0 °F 85% 29.63 in 10.0 mi South 19.6 mph 26.5 mph 0.01 in   Light Drizzle
2:55 PM 64.8 °F 61.3 °F 89% 29.62 in 4.0 mi South 12.7 mph 24.2 mph 0.02 in Rain Light Rain
3:15 PM 64.4 °F 61.7 °F 91% 29.60 in 10.0 mi South 16.1 mph 24.2 mph N/A   Overcast
3:35 PM 65.7 °F 60.8 °F 84% 29.58 in 10.0 mi South 13.8 mph 20.7 mph N/A   Overcast
3:55 PM 66.2 °F 60.8 °F 83% 29.56 in 10.0 mi South 19.6 mph 23.0 mph N/A Rain Light Rain
4:15 PM 67.3 °F 60.1 °F 78% 29.55 in 10.0 mi South 26.5 mph 33.4 mph 0.01 in Rain Light Rain
4:35 PM 66.7 °F 60.6 °F 81% 29.53 in 10.0 mi South 18.4 mph 29.9 mph 0.01 in Rain Light Rain
4:55 PM 65.3 °F 61.2 °F 86% 29.52 in 10.0 mi South 17.3 mph 26.5 mph 0.02 in Rain Light Rain
5:15 PM 64.6 °F 61.7 °F 90% 29.50 in 7.0 mi South 18.4 mph 25.3 mph 0.02 in Rain Rain
5:35 PM 64.4 °F 61.9 °F 92% 29.49 in 5.0 mi South 24.2 mph 32.2 mph 0.06 in Rain Rain
5:55 PM 62.8 °F 61.0 °F 94% 29.51 in 1.5 mi SSW 21.9 mph 36.8 mph 0.36 in Rain Heavy Rain
6:15 PM 61.0 °F 59.7 °F 96% 29.50 in 3.0 mi SSW 12.7 mph 21.9 mph 0.17 in Rain Heavy Rain
6:35 PM 60.4 °F 59.5 °F 97% 29.51 in 5.0 mi South 11.5 mph 24.2 mph 0.31 in Rain Rain
7:15 PM 59.9 °F 59.2 °F 97% 29.47 in 7.0 mi SSW 6.9 mph - 0.03 in Rain Light Rain
7:35 PM 59.9 °F 59.0 °F 97% 29.50 in 7.0 mi SSW 6.9 mph - 0.06 in Rain Rain
7:55 PM 59.7 °F 59.0 °F 97% 29.47 in 10.0 mi South 9.2 mph - 0.10 in Rain Light Rain
8:15 PM 59.5 °F 58.6 °F 97% 29.47 in 10.0 mi SSW 11.5 mph 16.1 mph N/A Rain Light Rain
8:35 PM 59.5 °F 58.3 °F 96% 29.47 in 10.0 mi SSW 15.0 mph 26.5 mph 0.01 in Rain Rain
8:55 PM 59.0 °F 56.7 °F 92% 29.52 in 7.0 mi West 11.5 mph 24.2 mph 0.02 in Rain Rain
9:15 PM 57.4 °F 53.8 °F 88% 29.51 in 10.0 mi WSW 11.5 mph - 0.01 in Rain Light Rain
9:35 PM 54.7 °F 48.9 °F 81% 29.50 in 10.0 mi WSW 10.4 mph 17.3 mph 0.02 in Rain Light Rain
9:55 PM 53.6 °F 47.3 °F 79% 29.52 in 10.0 mi WSW 6.9 mph - 0.03 in Rain Rain
10:15 PM 52.0 °F 46.0 °F 80% 29.54 in 10.0 mi SW 9.2 mph 20.7 mph N/A Rain Light Rain
10:35 PM 51.3 °F 46.0 °F 82% 29.51 in 10.0 mi SSW 8.1 mph - 0.01 in Rain Light Rain
10:55 PM 50.2 °F 47.5 °F 90% 29.55 in 10.0 mi SW 11.5 mph 24.2 mph 0.01 in Rain Light Rain
11:15 PM 49.1 °F 47.3 °F 93% 29.57 in 10.0 mi SW 9.2 mph 20.7 mph N/A   Overcast
11:35 PM 49.1 °F 47.3 °F 93% 29.54 in 10.0 mi SW 5.8 mph - N/A Rain Light Rain
11:55 PM 48.0 °F 45.3 °F 90% 29.54 in 10.0 mi SW 9.2 mph 20.7 mph N/A   Overcast